SCP
0 0 0 0 0 0 0 0 0 0 0 0 0 1 0 0 0 0 0 0 0 0 0 0 0 0 0 0 0 0 0 0 0 0 0 0 0 0
0 0 0 0 0 0 0 0 0 0 0 0 0 0 0 0 0 0 0 0 0 0 0 0 0 0 0 0 0 0 0 0 0 0 0 0 0 0
0 0 0 0 0 0 0 0 0 0 0 0 0 0 0 0 0 0 0 0 0 0 0 0 0 0 0 0 0 0 0 0 0 0 0 0 0 0
0 0 0 0 0 0 0 0 0 0 0 0 0 0 0 0 0 0 0 0 0 0 0 0 0 0 0 0 0 0 0 0 0 0 0 0 0 0
0 0 0 0 0 0 0 0 0 0 0 0 0 0 0 0 0 0 0 0 0 0 0 0 0 0 0 0 0 0 0 0 0 0 0 0 0 0
0 0 0 0 0 0 0 0 0 0 0 0 0 0 0 0 0 0 0 0 0 0 0 0 0 0 0 0 0 0 0 0 0 0 0 0 0 0
0 0 0 0 0 0 0 0 0 0 0 0 0 0 0 0 0 0 0 0 0 0 0 0 0 0 0 0 0 0 0 0 0 0 0 0 0 0
0 0 0 0 0 0 0 0 0 0 0 0 0 0 0 0 0 0 0 0 0 0 0 0 0 0 0 0 0 0 0 0 0 0 0 0 0 0
0 0 0 0 0 0 0 0 0 0 0 0 0 0 0 0 0 0 0 0 0 0 0 0 0 0 0 0 0 0 0 0 0 0 0 0 0 0
0 0 0 0 0 0 0 0 0 0 0 0 0 0 0 0 0 0 0 0 0 0 0 0 0 0 0 0 0 0 0 0 0 0 0 0 0 0
0 0 0 0 0 0 0 0 0 0 0 0 0 0 0 0 0 0 0 0 0 0 0 0 0 0 0 0 0 0 0 0 0 0 0 0 0 0
0 0 0 0 0 0 0 0 0 0 0 0 0 0 0 0 0 0 0 0 0 0 0 0 0 0 0 0 0 0 0 0 0 0 0 0 0 0
0 0 0 0 0 0 0 0 0 0 0 0 0 0 0 0 0 0 0 0 0 0 0 0 0 0 0 0 0 0 0 0 0 0 0 0 0 0
0 0 0 0 0 0 0 0 0 0 0 0 0 0 0 0 0 0 0 0 0 0 0 0 0 0 0 0 0 0 0 0 0 0 0 0 0 0
0 0 0 0 0 0 0 0 0 0 0 0 0 0 0 0 0 0 0 0 0 0 0 0 0 0 0 0 0 0 0 0 0 0 0 0 0 0
0 0 0 0 0 0 0 0 0 0 0 0 0 0 0 0 0 0 0 0 0 0 0 0 0 0 0 0 0 0 0 0 0 0 0 0 0 0
0 0 0 0 0 0 0 0 0 0 0 0 0 0 0 0 0 0 0 0 0 0 0 0 0 0 0 0 0 0 0 0 0 0 0 0 0 0
0 0 0 0 0 0 0 0 0 0 0 0 0 0 0 0 0 0 0 0 0 0 0 0 0 0 0 0 0 0 0 0 0 0 0 0 0 0
0 0 0 0 0 0 0 0 0 0 0 0 0 0 0 0 0 0 0 0 0 0 0 0 0 0 0 0 0 0 0 0 0 0 0 0 0 0
0 0 0 0 0 0 0 0 0 0 0 0 0 0 0 0 0 0 0 0 0 0 0 0 0 0 0 0 0 0 0 0 0 0 0 0 0 0
0 0 0 0 0 0 0 0 0 0 0 0 0 0 0 0 0 0 0 0 0 0 0 0 0 0 0 0 0 0 0 0 0 0 0 0 0 0
0 0 0 0 0 0 0 0 0 0 0 0 0 0 0 0 0 0 0 0 0 0 0 0 0 0 0 0 0 0 0 0 0 0 0 0 0 0
0 0 0 0 0 0 0 0 0 0 0 0 0 0 0 0 0 0 0 0 0 0 0 0 0 0 0 0 0 0 0 0 0 0 0 0 0 0
Wind_Speed
4 4 3 3 3 3 3 2 2 2 2 2 2 3 2 3 4 4 4 10 11 12 13 13 13 14 14 14 15 15 15 15 15 15 15 14 14 14
4 5 4 3 3 3 3 3 3 3 2 1 2 2 3 4 5 4 4 8 8 9 10 11 11 12 12 12 13 13 13 14 14 14 14 14 14 13
3 4 4 4 3 3 3 3 4 3 3 1 1 2 3 3 3 2 2 3 3 6 7 8 9 9 10 10 10 11 11 12 12 12 12 13 13 13
4 4 4 4 4 3 3 3 3 3 3 2 1 2 3 2 2 2 2 3 2 4 5 5 6 6 7 7 8 9 10 10 11 11 11 12 12 13
4 5 4 4 4 3 3 3 2 3 3 2 1 1 1 2 2 3 2 1 1 2 2 2 3 4 4 5 6 7 7 8 9 9 10 11 11 12
5 5 5 4 4 3 3 3 3 3 2 2 2 1 1 2 2 2 2 2 2 2 1 1 1 1 2 3 4 4 5 6 7 8 8 9 10 11
5 5 5 7 8 5 4 3 3 2 2 2 1 1 1 2 2 2 2 2 2 1 1 1 0 0 0 1 2 2 3 4 5 6 7 8 9 11
4 4 5 5 7 8 8 8 6 4 2 2 1 1 1 1 1 2 2 2 2 2 2 2 1 1 1 1 1 1 1 2 4 5 7 7 9 10
3 3 3 4 4 3 3 4 5 6 5 2 2 1 2 2 2 2 2 2 2 2 2 2 2 2 1 1 2 1 2 3 4 6 7 8 9 10
1 2 3 3 2 3 2 2 2 1 1 2 1 1 2 2 2 1 2 2 2 2 1 1 2 2 2 1 3 2 3 4 6 7 8 8 9 10
1 3 3 3 3 4 3 2 1 0 1 2 2 1 1 3 3 3 3 3 3 2 1 0 2 3 2 2 2 4 4 5 7 7 9 9 10 10
2 2 4 4 4 4 2 1 0 1 1 0 1 2 2 2 2 0 0 1 2 2 2 1 1 2 4 3 2 2 3 5 7 8 9 9 10 5
2 2 2 4 4 3 3 1 1 1 1 1 1 1 1 1 1 1 0 1 1 2 2 1 1 1 2 4 3 2 2 2 3 4 6 9 9 6
2 2 3 5 4 2 2 1 1 2 1 1 1 1 1 1 1 1 1 1 2 3 2 1 1 1 2 3 4 3 3 3 3 3 3 6 7 8
2 3 4 5 4 2 2 2 1 1 1 1 2 2 1 1 1 1 2 2 3 3 2 2 2 2 2 3 4 4 4 4 3 3 3 3 3 3
2 2 3 3 2 2 2 2 2 2 2 2 2 2 2 1 1 1 2 2 2 3 3 2 2 2 3 4 4 5 4 4 4 3 4 4 4 3
3 2 1 1 1 1 1 2 2 2 2 2 2 2 2 2 2 2 1 1 2 3 4 3 3 3 4 4 4 4 4 4 4 4 5 5 4 4
4 2 2 2 2 2 2 2 2 2 2 2 2 2 2 2 3 2 2 2 3 3 3 3 3 3 3 4 4 4 4 5 5 5 4 5 6 5
3 2 2 2 2 2 2 2 2 2 1 2 2 2 2 2 2 2 2 2 3 3 3 3 2 2 4 7 5 3 4 5 5 5 4 5 7 6
2 2 2 2 2 2 1 1 1 1 1 1 1 2 2 2 2 3 3 3 4 4 3 3 2 2 4 6 6 5 5 5 5 6 6 5 6 7
3 3 2 2 2 1 1 1 1 1 1 1 1 2 2 2 3 3 3 5 4 3 4 4 4 5 4 3 5 5 5 6 7 6 6 6 7 6
3 3 2 2 2 2 1 1 1 1 1 1 1 2 2 2 3 4 3 3 3 4 4 4 3 3 2 4 7 7 7 6 6 9 9 9 7 7
3 3 2 2 2 1 1 1 1 1 0 1 1 2 2 2 2 3 3 3 3 4 4 4 3 3 4 5 6 6 8 8 5 5 6 9 12 15
Wind_Direction
58 60 57 49 41 41 46 73 113 108 73 55 52 47 56 65 43 64 70 60 58 56 53 50 50 52 52 51 50 49 47 45 44 42 40 38 36 34
63 59 50 51 42 35 32 31 60 106 101 78 81 60 45 63 57 65 80 71 61 63 59 55 53 53 53 52 51 49 47 44 41 39 36 34 31 29
79 79 68 56 50 35 33 39 45 73 96 77 76 75 65 52 34 39 95 89 68 71 67 61 56 55 53 51 50 48 45 42 38 35 32 28 26 23
70 79 80 68 56 40 41 45 49 63 92 97 56 50 62 60 20 3 56 80 93 84 83 72 66 63 59 55 51 48 44 39 35 31 27 23 19 16
67 67 68 71 58 50 49 46 41 52 65 90 78 40 35 36 22 360 27 24 51 103 97 82 85 77 67 63 56 52 43 35 30 26 21 17 13 9
81 74 64 64 57 51 53 42 44 48 50 63 72 45 24 2 28 356 353 347 355 21 35 71 109 104 75 75 64 54 41 29 21 15 11 7 1 357
105 96 86 83 75 67 62 43 43 43 44 54 48 37 16 14 351 329 348 332 341 11 7 345 28 251 240 135 84 54 35 18 7 1 358 355 351 348
123 122 120 103 92 81 74 66 59 57 49 49 28 32 351 334 335 351 347 358 333 329 18 329 350 280 228 193 174 155 350 343 343 339 337 337 339 338
115 123 121 117 121 112 84 68 51 48 60 82 53 10 352 343 11 353 346 346 291 288 26 326 331 330 295 212 197 217 254 283 311 315 317 322 325 325
84 116 113 107 90 103 108 90 74 50 55 80 91 25 25 7 12 340 313 329 317 325 39 323 320 312 307 290 243 258 254 275 294 300 305 311 315 319
85 84 104 107 85 106 119 123 114 225 171 149 149 144 27 12 17 20 1 4 332 315 347 42 312 314 300 281 272 260 271 280 288 297 302 305 306 311
141 109 95 107 96 106 116 118 108 299 314 245 271 278 274 302 326 43 64 1 321 316 325 32 331 349 326 305 306 299 285 287 286 296 301 303 305 303
154 143 128 125 118 121 131 142 219 294 309 302 281 286 294 290 296 289 159 161 237 275 303 10 331 325 283 297 306 298 295 295 297 300 298 304 307 296
153 151 150 150 147 151 170 233 310 337 328 330 327 314 305 299 294 283 276 252 227 236 276 291 268 275 290 294 296 300 302 295 295 297 296 307 302 297
130 142 161 175 172 185 209 237 272 299 297 290 281 276 271 273 293 310 308 291 287 280 283 274 260 271 264 276 287 295 305 298 290 303 305 302 290 294
157 140 150 174 191 206 212 227 218 218 224 243 261 275 292 306 296 280 285 302 307 301 293 283 272 264 272 274 277 287 290 292 305 302 298 291 285 281
158 155 165 167 203 223 218 207 208 218 240 254 261 276 286 284 278 274 276 290 289 291 299 299 284 269 262 269 280 280 285 287 286 292 299 293 282 278
154 181 195 195 201 205 214 233 225 219 230 238 249 259 268 272 276 277 269 268 277 283 288 294 304 316 320 297 259 277 286 285 288 289 289 292 291 286
161 194 194 199 209 212 214 219 229 226 223 237 246 258 267 278 283 288 285 281 281 280 283 290 301 303 301 297 287 263 282 290 293 290 283 283 286 288
182 193 197 199 203 208 215 225 237 248 251 257 263 275 277 282 288 289 287 285 285 288 293 296 290 271 268 278 285 289 272 279 291 291 288 285 279 282
197 201 200 202 203 203 206 213 223 238 256 262 266 270 273 276 280 281 282 290 290 290 288 283 272 272 271 291 295 294 291 278 281 286 293 299 300 298
192 197 199 198 200 201 201 204 226 244 260 272 279 276 276 277 283 287 289 290 285 281 284 286 295 303 303 292 289 293 296 298 292 289 283 279 290 295
198 194 189 185 184 175 178 198 216 241 286 305 303 300 301 297 289 286 288 289 290 296 303 307 310 303 290 283 286 292 298 304 306 307 297 291 290 290